sat.trackr.live / text

‹ back to catalog

STARLINK-5420

NORAD 54798 · 2022-175AS

PAYLOAD ACTIVE UNKNOWN

§ Identity

Operator
Country
US
Launch date
2022-12-17
Launch site
AFETR
Launch vehicle
Mass (kg)
RCS (m²)

Purposes: comms

External: N2YO · Heavens-Above · Gunter

§ Orbital elements

Epoch: 2026-09-20T14:37:40.026720Z

Period
93.79 min
Inclination
53.1602°
Eccentricity
0.0001090
Mean motion
15.35399597 rev/d
Perigee alt
459.0 km
Apogee alt
460.5 km
Semi-major
6,837.9 km
B*
1.7456e-5
RAAN
217.3155°
Arg perigee
87.9747°
Mean anomaly
272.1381°
Rev number
20,978

§ Raw data

STARLINK-54201 54798U 22175AS  26263.60949105  .00000229  00000+0  17456-4 0  99922 54798  53.1602 217.3155 0001090  87.9747 272.1381 15.35399597209784

JSON: /api/v1/satellites/54798 · /tle

For live sub-satellite position, see the globe view (requires WebGL).

§ Visibility from observer

Set your observer location to see the next 7 days of passes ≥ 10°. The values pass through the URL so the page stays shareable.

No JS? Fill the form by hand. The geolocation button needs JavaScript.